User: anonymous   Login
Location: İstanbul
(41.0082°N, 28.9784°E)
Time: 15:26:18
(UTC+03:00)
Language:

PCSat - Orbit

View from above orbital plane
View from above orbital plane
View from above satellite
View from above satellite

Ground track
Ground track

The orbit data is extracted from the following two-line orbital elements,

1 26931U 01043C   24103.51808159  .00000200  00000-0  10706-3 0  9995
2 26931  67.0494 141.1997 0006070 281.6993  78.3427 14.31171580176552
Epoch (UTC): 12 April 2024 12:26:02
Eccentricity: 0.0006070
inclination: 67.0494°
perigee height: 783 km
apogee height: 792 km
right ascension of ascending node: 141.1997°
argument of perigee: 281.6993°
revolutions per day: 14.31171580
mean anomaly at epoch: 78.3427°
orbit number at epoch: 17655

The dashed part of the orbit path shows where the satellite is in the earth's shadow,  

DLR